Other Public Products
Issued by NWS Grand Forks, ND

Home | Current Version | Previous Version | Graphics & Text | Print | Product List | Glossary On
Versions: 1 2 3 4 5 6 7 8 9 10 11 12 13 14 15 16 17 18 19 20 21 22 23 24 25 26 27 28 29 30 31 32 33 34 35 36 37 38 39 40 41 42 43 44 45 46 47 48 49 50
000
FPUS83 KFGF 252010
OPUFGF
PRAIRIE TO PINES WEATHER ROUNDUP
NATIONAL WEATHER SERVICE EASTERN NORTH DAKOTA/GRAND FORKS ND
300 PM CDT FRI JUL 25 2014

 **SATELLITE DATA USED TO AUGMENT SKY COVER AT AUTOMATED STATIONS**
 *****  WEATHER ACROSS EASTERN NORTH DAKOTA  *****

CITY           SKY/WX    TMP DP  RH WIND       PRES   REMARKS
GRAND FORKS    PTSUNNY   79  67  66 NW9       29.72F
GRAND FORKS AF SUNNY     81  63  54 NW15      29.75S
GRAND CITY NWS   N/A     81 N/A N/A NW16        N/A
BUXTON         NOT AVBL
DEVILS LAKE    SUNNY     75  52  43 NW15G22   29.78S
FARGO          PTSUNNY   78  67  68 W6        29.75S
WAHPETON ARPT  MOCLDY    75  64  69 SW3       29.77S
$$

 *****  WEATHER ACROSS CENTRAL AND WESTERN NORTH DAKOTA  *****

CITY           SKY/WX    TMP DP  RH WIND       PRES   REMARKS
JAMESTOWN      SUNNY     79  49  34 N16       29.81S
BISMARCK       SUNNY     82  46  28 NW13G18   29.84F
MINOT          SUNNY     76  48  37 W14       29.80F
MINOT AFB      SUNNY     75  53  45 W15       29.79F
GARRISON         N/A     75  50  41 W10       29.84R
WILLISTON      SUNNY     81  41  24 SW16G25   29.79F
DICKINSON      SUNNY     78  41  26 W10       29.86F
HETTINGER      SUNNY     78  44  29 W7        29.90F
$$

 *****  OTHER OBSERVATIONS NORTHEAST NORTH DAKOTA  *****

CITY           SKY/WX    TMP DP  RH WIND       PRES   REMARKS
WALHALLA       FAIR      77  50  38 NW9G18      N/A
LANGDON        FAIR      77  50  38 W16G22    29.77S
CAVALIER       FAIR      79  55  44 NW14      29.72F
GRAFTON        FAIR      79  57  47 W16       29.72S
CANDO          FAIR      75  55  50 W12       29.79F
FORT TOTTEN      N/A     78  55  44 NW7       29.95S
ROLLA            N/A     73  52  46 W13G20    29.79F
RUGBY          FAIR      73  55  53 W14       29.79S
 ***** THE ABOVE OBSERVATIONS ARE NON NWS ARE NOT QUALITY
        CONTROLLED AND MAY MIS-REPORT RAIN FOR SNOW...
$$

 *****  OTHER OBSERVATIONS SOUTHEAST NORTH DAKOTA *****

CITY           SKY/WX    TMP DP  RH WIND       PRES   REMARKS
COOPERSTOWN    NOT AVBL
VALLEY CITY    FAIR      81  57  44 NW17      29.79S
OAKES          NOT AVBL
GWINNER        CLOUDY    77  72  83 NW13      29.80S
SHEYENNE NWR     N/A     78  68  70 N6        29.95
BUFFALO        NOT AVBL
WYNDMERE       NOT AVBL
 ***** THE ABOVE OBSERVATIONS ARE NON NWS ARE NOT QUALITY
       CONTROLLED AND MAY MIS-REPORT RAIN FOR SNOW...
$$

  *****  WEATHER ACROSS NORTHERN MINNESOTA  *****

CITY           SKY/WX    TMP DP  RH WIND       PRES   REMARKS
FLAG ISLAND    MOSUNNY   73  64  73 S6        29.71S
WARROAD        PTSUNNY   75  68  78 S5        29.73S
ROSEAU         MOSUNNY   77  68  73 S8        29.72F
HALLOCK        SUNNY     77  66  69 NW9G20    29.70S
THF RVR FALLS  CLOUDY    75  66  73 SW6       29.75S
HALSTAD          N/A     79  66  64 NW3         N/A
FOSSTON        PTSUNNY   77  66  69 S3        29.76S
BAUDETTE       CLOUDY    74  64  71 VRB3      29.74F
WASKISH        CLOUDY    73  66  78 SW7       29.75S
CROOKSTON      MOSUNNY   75  66  73 W3        29.74F
$$
  *****  WEATHER ACROSS CENTRAL AND WEST MINNESOTA  *****

CITY           SKY/WX    TMP DP  RH WIND       PRES   REMARKS
BEMIDJI        CLOUDY    73  65  76 W5        29.77S
PARK RAPIDS    PTSUNNY   78  66  66 W6        29.76F
WADENA         PTSUNNY   73  66  78 SW5       29.78R
DETROIT LAKES  CLOUDY    73  66  78 CALM      29.78S
MOORHEAD       MOSUNNY   77  72  83 NE3       29.76S
FERGUS FALLS   PTSUNNY   73  64  73 CALM      29.77S
ELBOW LAKE     CLOUDY    73  67  83 W3        29.77S
MORRIS MN      SUNNY     79  70  73 NW7       29.76S
STAPLES        CLOUDY    73  66  78 S3        29.78S
WHEATON        NOT AVBL
$$
  *****  WEATHER ELSEWHERE ACROSS MINNESOTA  *****

CITY           SKY/WX    TMP DP  RH WIND       PRES   REMARKS
DULUTH         CLOUDY    69  63  81 S6        29.80F
INTRNTL FALLS  CLOUDY    74  64  71 SW6       29.75F
ELY            CLOUDY    70  61  73 SW3       29.80R
CLOQUET        CLOUDY    68  63  83 E6        29.80S
BRAINERD       CLOUDY    77  66  68 W5        29.77F
HIBBING        CLOUDY    72  64  76 CALM      29.79S
ALEXANDRIA     CLOUDY    75  67  76 SW8       29.80S
SAINT CLOUD    CLOUDY    82  67  60 SW8       29.77R
MINNEAPOLIS    CLOUDY    80  66  62 S14G21    29.78F
$$

  *****  WEATHER ACROSS SOUTH DAKOTA  *****

CITY           SKY/WX    TMP DP  RH WIND       PRES   REMARKS
SIOUX FALLS    PTSUNNY   82  72  71 VRB5      29.79S
BROOKINGS      NOT AVBL
WATERTOWN      CLOUDY    77  69  76 NW8       29.80R
HURON          CLOUDY    79  68  69 N13       29.80R
SISSETON         N/A     74  69  85 N7        29.78R
ABERDEEN       CLOUDY    76  68  76 N8        29.81S
MITCHELL       SUNNY     88  71  57 N9        29.78S HX  94
PIERRE         SUNNY     87  47  24 N14G25    29.82F
MOBRIDGE       SUNNY     83  49  30 N14       29.82F
RAPID CITY     SUNNY     78  50  37 CALM      29.94F
$$

  *****  SOME WEATHER IN NEARBY STATES *****

CITY           SKY/WX    TMP DP  RH WIND       PRES   REMARKS
GLASGOW MT     SUNNY     82  34  17 W16G29    29.77F
GREAT FALLS MT SUNNY     76  34  21 SW22G33   29.90S
CHEYENNE WY    PTSUNNY   83  46  27 VRB5      30.14S
SCOTTSBLUFF NE PTSUNNY   87  47  24 E8        29.99F
OMAHA NE       MOSUNNY   91  74  57 SE8       29.73S HX 100
DES MOINES IA  PTSUNNY   79  66  64 S18G25    29.81F
DAVENPORT IA   MOSUNNY   73  63  70 SW12G20   29.90R
CHICAGO IL     PTSUNNY   74  56  53 SW12      29.96R
EAU CLAIRE WI  CLOUDY    72  65  78 S9        29.84S
LA CROSSE WI   CLOUDY    74  63  68 S8        29.86S
$$

  *****  SOME NATIONAL WEATHER *****

CITY           SKY/WX    TMP DP  RH WIND       PRES   REMARKS
LA GUARDIA NY  MOSUNNY   82  52  35 N6        29.97F
RALEIGH NC     PTSUNNY   81  63  54 VRB5      30.02F
ATLANTA GA     PTSUNNY   88  64  44 VRB6      30.00F
NEW ORLEANS LA PTSUNNY   92  72  51 CALM      29.99F HX  99
OKLAHOMA CITY  SUNNY     98  64  32 SW20      29.91F HX 100
ALBUQUERQUE NM MOSUNNY   92  44  19 VRB3      30.17F
SALT LAKE CITY MOSUNNY   88  47  24 NW9       30.02F
LOS ANGELES CA MOSUNNY   79  64  60 W12       29.91R
BOISE ID       SUNNY     79  37  22 W13       30.06S
SEATTLE WA     PTSUNNY   67  53  61 NW9       30.15F
$$

*** WEATHER ACROSS MANITOBA...SASKATCHEWAN AND ONTARIO ***
                ***ONTARIO***

CITY           SKY/WX    TMP DP  RH WIND       PRES   REMARKS
GERALDTON      PTSUNNY   77  50  38 W14       29.76F
THUNDER BAY    LGT RAIN  63  59  88 NE2       29.78S
SIOUX LOOKOUT  MOSUNNY   77  57  50 W3        29.75F
TORONTO        MOSUNNY   77  48  36 SW10      29.97F
BIG TROUT LK   CLOUDY    68  52  56 N6        29.74S
PICKLE LAKE    PTSUNNY   79  48  34 W8        29.72F
DRYDEN         MOSUNNY   73  59  60 S3        29.75F
KENORA         NOT AVBL
$$
                *** MANITOBA***

CITY           SKY/WX    TMP DP  RH WIND       PRES   REMARKS
BRANDON        MOSUNNY   75  50  41 W22G28    29.72S
DAUPHIN        SUNNY     77  48  36 W17G23    29.66S
ISLAND LAKE    MOSUNNY   77  57  50 NE7       29.71F
PILOT MOUND      N/A     75  50  41 W13G23      N/A
THE PAS        LGT RAIN  72  64  78 SE9       29.62S
THOMPSON       PTSUNNY   75  48  38 E8G18     29.75F
WINNIPEG       MOSUNNY   81  59  47 NW15G23   29.68S
CHURCHILL      CLOUDY    52  46  82 E13       29.94S
GILLAM         PTSUNNY   66  54  63 NE15      29.81S
$$
                ***SASKATCHEWAN***

CITY           SKY/WX    TMP DP  RH WIND       PRES   REMARKS
ESTEVAN        MOSUNNY   73  52  46 W14G21    29.77F
KINDERSLEY     NOT AVBL
LLOYDMINSTER   NOT AVBL
PRINCE ALBERT  PTSUNNY   68  54  60 S12       29.56S
REGINA         MOSUNNY   75  52  43 SW17G29   29.68F
YORKTON        SUNNY     73  48  40 SW13G23   29.68F



USA.gov is the U.S. government's official web portal to all federal, state and local government web resources and services.